Kars, Turkey

6:05 PM +03 on November 19, 2017 (GMT +0300)
Kars

Weather History for LTCF - April, 2013

Change the Weather History Date:

Monday, April 22, 2013

  Actual Average Record
Temperature  
Mean Temperature 40 °F -  
Max Temperature 47 °F 59 °F - ()
Min Temperature 32 °F 37 °F - ()
Degree Days  
Heating Degree Days 26    
Moisture  
Dew Point 26 °F    
Average Humidity 58    
Maximum Humidity 80    
Minimum Humidity 27    
Precipitation  
Precipitation 0.00 in 0.09 in - ()
Sea Level Pressure  
Sea Level Pressure 29.84 in    
Wind  
Wind Speed 5 mph ()    
Max Wind Speed 17 mph    
Max Gust Speed 18 mph    
Visibility 6.2 miles    
Events      
T = Trace of Precipitation, MM = Missing Value Source: Averaged Metar Reports

Daily Weather History Graph

Daily Weather History Graph

Search for Another Location

Airport or City:

Trip Planner

Search our weather history database for the weather conditions in past years. The results will help you decide how hot, cold, wet, or windy it might be!

Date:

Astronomy

Apr. 22, 2013 Rise Set
Actual Time 5:18 AM EEST 6:53 PM EEST
Civil Twilight 4:49 AM EEST 7:22 PM EEST
Nautical Twilight 4:15 AM EEST 7:57 PM EEST
Astronomical Twilight 3:38 AM EEST 8:34 PM EEST
Moon 3:18 PM EEST (4/22) 3:02 AM EEST (4/22)
Length of Visible Light 14h 32m
Length of Day
13h 35m
Waxing Gibbous, 85% of the Moon is Illuminated
Apr 22
Waxing Gibbous
Apr 25
Full
May 2
Last Quarter
May 10
New
May 18
First Quarter

Hourly Weather History & Observations

Time (EEST) Temp. Windchill Dew Point Humidity Pressure Visibility Wind Dir Wind Speed Gust Speed Precip Events Conditions
12:50 AM 37.4 °F - 26.6 °F 65% 29.80 in 6.2 mi Variable 2.3 mph - N/A   Scattered Clouds
1:50 AM 37.4 °F - 26.6 °F 65% 29.80 in 6.2 mi Variable 1.2 mph - N/A   Scattered Clouds
3:00 AM 36 °F - 28 °F 65%  in 6 mi SSW 2.3 mph - -   Partly Cloudy
3:50 AM 37.4 °F 33.8 °F 26.6 °F 65% 29.80 in 6.2 mi WSW 4.6 mph - N/A   Scattered Clouds
4:50 AM 35.6 °F 32.8 °F 28.4 °F 75% 29.80 in 6.2 mi WSW 3.5 mph - N/A   Mostly Cloudy
5:50 AM 35.6 °F - 26.6 °F 70% 29.80 in 6.2 mi West 2.3 mph - N/A   Mostly Cloudy
6:50 AM 37.4 °F - 28.4 °F 70% 29.80 in 6.2 mi SE 1.2 mph - N/A   Mostly Cloudy
7:50 AM 39.2 °F - 26.6 °F 61% 29.83 in 6.2 mi Calm Calm - N/A   Mostly Cloudy
8:50 AM 41.0 °F 39.0 °F 28.4 °F 61% 29.83 in 6.2 mi West 3.5 mph - N/A   Mostly Cloudy
9:00 AM 41 °F - 28 °F 48%  in 6 mi West 3.5 mph - -   Partly Cloudy
9:50 AM 42.8 °F - 28.4 °F 57% 29.77 in - North - - N/A   Mostly Cloudy
10:50 AM 44.6 °F 41.4 °F 21.2 °F 39% 29.83 in 6.2 mi West 5.8 mph - N/A   Mostly Cloudy
11:50 AM 44.6 °F 39.7 °F 24.8 °F 46% 29.83 in 6.2 mi NNW 9.2 mph - N/A   Mostly Cloudy
12:50 PM 44.6 °F 39.7 °F 24.8 °F 46% 29.83 in 6.2 mi NNW 9.2 mph - N/A   Mostly Cloudy
1:50 PM 44.6 °F 42.2 °F 23.0 °F 43% 29.83 in 6.2 mi North 4.6 mph - N/A   Mostly Cloudy
2:50 PM 46.4 °F 41.9 °F 21.2 °F 37% 29.80 in 6.2 mi NNW 9.2 mph - N/A   Mostly Cloudy
3:00 PM 46 °F - 23 °F 27%  in 6 mi NNW 9.2 mph - -   Partly Cloudy
3:50 PM 46.4 °F 39.8 °F 26.6 °F 46% 29.80 in 6.2 mi NNW 16.1 mph - N/A   Mostly Cloudy
4:50 PM 44.6 °F 37.2 °F 28.4 °F 53% 29.83 in 6.2 mi North 17.3 mph - N/A   Mostly Cloudy
5:50 PM 42.8 °F 36.6 °F 26.6 °F 53% 29.83 in 6.2 mi NNE 11.5 mph - N/A   Mostly Cloudy
6:50 PM 41.0 °F 35.2 °F 26.6 °F 57% 29.86 in 6.2 mi NNE 9.2 mph - N/A   Mostly Cloudy
7:50 PM 39.2 °F 34.2 °F 28.4 °F 65% 29.89 in 6.2 mi NNE 6.9 mph 18.4 mph N/A   Mostly Cloudy
8:50 PM 35.6 °F 29.9 °F 26.6 °F 70% 29.92 in 6.2 mi NE 6.9 mph - N/A   Mostly Cloudy
9:00 PM 36 °F - 26 °F 56%  in 6 mi NE 6.9 mph - -   Partly Cloudy
9:50 PM 33.8 °F 24.8 °F 26.6 °F 75% 29.92 in 6.2 mi NE 12.7 mph - N/A   Mostly Cloudy
10:50 PM 32.0 °F 24.2 °F 26.6 °F 80% 29.92 in 6.2 mi East 9.2 mph - N/A   Mostly Cloudy
11:50 PM 32.0 °F 24.2 °F 26.6 °F 80% 29.95 in 6.2 mi East 9.2 mph - N/A   Mostly Cloudy